Dewpoint
28 28 27 26 24 22 18 16 16 16 17 21 23 24 25 26 40 42 46 51 51 50 51 54 56 59 60 62 64 65 66 66 68 69 69 70 71 71 71 71 71 71 70 71
28 27 26 25 25 24 22 18 19 17 18 19 22 25 26 27 31 33 42 48 52 52 53 54 56 59 60 63 64 66 67 66 68 69 69 69 70 71 71 71 71 71 70 70
25 28 27 22 21 21 21 19 18 17 21 21 21 23 23 23 27 29 32 38 49 51 51 53 55 59 60 62 64 66 67 68 69 69 70 70 70 70 70 70 71 71 70 70
27 27 21 23 26 24 21 19 20 20 23 24 24 25 24 24 24 28 31 40 46 49 51 52 53 53 59 62 65 67 67 68 69 70 70 71 71 71 71 71 70 71 71 70
24 25 23 22 38 46 45 36 23 21 24 25 23 25 29 31 30 30 33 39 43 46 49 53 53 57 60 62 65 67 68 68 69 70 70 71 71 71 71 71 71 71 71 71
27 24 22 28 48 50 51 38 32 27 24 24 27 23 27 30 34 32 35 38 42 46 50 50 54 58 60 61 64 66 68 69 70 70 70 71 71 72 72 72 72 72 72 71
26 27 27 31 51 53 32 38 55 56 50 26 26 26 39 45 50 55 50 50 44 50 53 57 58 60 61 61 63 65 67 69 70 71 71 71 71 72 73 73 73 72 72 72
27 28 24 50 51 49 50 56 55 57 56 35 47 58 61 62 63 65 66 68 66 54 53 53 60 62 63 63 64 67 69 69 70 71 71 71 72 72 73 73 73 72 72 72
28 28 40 52 53 55 56 54 55 56 58 60 61 60 60 58 57 57 61 64 67 65 63 62 65 64 62 64 65 66 68 69 71 71 72 72 73 72 72 73 72 72 71 71
38 40 41 53 54 55 55 55 56 57 56 57 56 56 55 55 55 55 55 55 63 62 60 59 62 63 63 65 69 66 67 68 70 71 71 72 73 73 72 72 72 71 71 71
37 40 50 53 52 53 54 55 56 56 56 56 57 57 57 58 59 60 60 59 57 57 59 59 60 60 61 61 68 69 65 67 68 70 70 73 65 68 73 73 71 72 71 70
39 41 48 50 51 53 53 53 56 56 57 57 57 57 59 58 60 61 60 60 60 61 61 61 61 61 61 61 66 71 68 66 68 70 71 63 61 57 49 54 54 52 54 62
45 48 50 52 53 53 53 54 56 56 57 57 57 59 60 59 60 60 61 62 61 60 62 62 62 63 64 64 62 68 70 69 69 68 65 63 66 65 60 54 52 52 53 54
48 52 51 52 51 53 53 54 55 56 57 57 58 60 60 60 60 61 61 62 63 62 62 63 63 64 64 64 62 66 71 60 67 66 66 68 66 65 63 61 60 58 52 52
51 53 53 53 52 52 52 53 52 52 54 55 55 56 57 59 59 60 62 62 62 61 61 61 61 61 63 65 62 63 64 66 66 67 67 63 62 62 62 62 61 59 54 50
52 53 52 51 51 52 52 52 52 52 52 52 51 51 53 55 56 56 59 60 59 59 60 60 59 60 62 62 59 60 63 60 61 63 63 62 62 61 61 61 58 57 59 54
49 49 50 49 50 51 52 52 52 52 53 54 55 53 52 53 54 55 55 56 56 56 57 57 57 60 62 62 62 60 63 64 60 62 61 61 61 61 61 60 59 60 60 56
51 52 52 52 51 51 52 52 52 53 53 54 55 55 55 55 55 55 56 57 55 55 56 57 57 58 61 62 63 64 64 64 63 62 61 61 61 61 61 60 59 58 57 52
53 53 52 53 54 53 52 52 52 53 54 54 55 54 54 53 52 51 51 49 50 50 51 54 57 56 58 60 60 62 63 64 63 62 62 58 60 59 59 59 58 56 55 53
50 51 51 50 51 51 51 52 53 54 55 55 54 53 53 53 53 52 50 49 50 51 51 53 53 53 56 59 59 59 60 61 61 61 61 62 61 60 58 54 56 55 54 55
45 44 43 43 41 43 43 47 50 50 51 51 51 50 50 51 50 50 47 45 49 50 50 51 51 52 55 57 58 59 58 57 60 60 61 59 60 59 59 58 57 57 56 54
41 38 38 42 41 39 41 42 42 42 41 42 43 43 43 46 48 50 50 49 49 50 50 50 51 53 51 53 54 57 58 58 57 57 57 59 58 58 58 58 58 57 57 56
39 37 37 37 38 40 40 40 39 39 39 38 38 39 43 44 46 47 46 48 48 48 48 49 51 51 51 50 49 49 50 51 52 55 56 55 56 57 57 57 57 56 55 55
34 35 36 38 38 39 39 39 38 39 40 40 39 39 39 40 38 40 40 41 43 43 42 45 47 49 50 49 49 48 48 49 48 47 45 42 43 42 45 51 53 57 57 55
33 34 35 36 37 37 38 39 38 38 38 39 38 38 38 38 37 37 37 37 39 37 37 41 43 45 46 48 49 49 48 48 47 46 46 46 45 45 45 44 44 44 44 44
29 30 32 34 37 38 38 37 36 37 36 35 36 37 36 36 35 35 35 37 35 36 33 34 36 39 42 43 47 47 48 49 49 48 46 45 44 43 42 42 41 41 42 42
26 30 28 31 32 36 37 35 33 33 34 34 33 33 33 33 33 32 33 32 33 33 33 33 32 33 34 40 42 44 45 47 46 48 49 48 47 45 43 42 41 41 40 40
Lifted_Index
9 9 8 7 7 8 9 9 8 7 7 7 7 7 6 5 5 4 3 3 2 1 1 1 1 0 -1 -1 -3 -4 -4 -4 -4 -5 -5 -5 -5 -4 -4 -4 -4 -4 -5 -5
8 9 8 7 7 8 8 9 8 8 8 8 7 7 6 6 5 5 4 3 2 1 1 0 0 -0 -1 -2 -3 -4 -4 -4 -5 -5 -5 -5 -5 -5 -4 -4 -4 -5 -5 -5
7 8 7 6 7 7 8 8 8 8 8 9 8 7 6 6 6 6 5 4 3 2 1 0 -0 -1 -1 -2 -3 -4 -4 -5 -5 -5 -5 -6 -5 -5 -5 -5 -5 -5 -5 -5
7 6 6 7 8 7 7 7 8 8 8 9 8 7 6 5 5 5 5 4 4 3 2 1 0 -1 -1 -1 -2 -3 -4 -5 -5 -5 -6 -6 -6 -6 -6 -6 -5 -5 -6 -6
6 6 6 8 8 6 6 7 7 7 8 8 7 6 6 5 4 4 5 5 4 4 3 2 1 -0 -1 -1 -2 -3 -4 -5 -5 -6 -6 -6 -6 -6 -6 -6 -6 -6 -6 -6
7 6 7 8 6 5 5 5 6 6 6 6 6 6 5 5 4 4 4 4 4 4 3 2 1 0 -1 -1 -2 -3 -4 -5 -5 -6 -6 -7 -7 -7 -7 -7 -7 -7 -6 -6
7 6 7 7 5 3 4 4 4 3 4 4 5 5 4 3 3 2 2 2 3 3 3 2 2 1 -1 -2 -2 -3 -4 -5 -6 -6 -7 -7 -7 -7 -8 -8 -7 -7 -7 -7
7 7 6 5 3 2 2 2 2 1 2 2 3 2 1 0 -0 -1 -1 -1 -0 1 1 1 0 -0 -1 -2 -3 -4 -5 -6 -6 -7 -7 -7 -7 -8 -8 -8 -8 -8 -8 -8
7 6 5 2 1 0 -0 -0 -0 -0 -0 -0 0 -0 -0 -1 -2 -3 -3 -3 -2 -2 -1 -2 -2 -2 -3 -4 -4 -4 -5 -6 -6 -7 -7 -8 -8 -8 -8 -8 -8 -8 -8 -8
5 5 4 1 -1 -2 -2 -3 -3 -2 -2 -2 -2 -2 -2 -2 -3 -3 -3 -2 -2 -2 -2 -2 -3 -3 -4 -4 -4 -5 -5 -5 -6 -7 -8 -8 -8 -8 -8 -8 -8 -8 -9 -9
3 3 2 -0 -2 -3 -4 -4 -4 -4 -4 -4 -3 -3 -3 -3 -3 -3 -3 -2 -1 -1 -1 -1 -1 -1 -2 -2 -4 -5 -5 -5 -6 -6 -7 -8 -8 -8 -8 -8 -8 -8 -8 -8
2 2 1 -1 -2 -3 -4 -4 -5 -5 -5 -5 -4 -4 -3 -2 -2 -2 -2 -1 -0 0 1 1 1 1 0 0 -2 -4 -6 -5 -5 -6 -6 -7 -8 -8 -8 -8 -9 -8 -8 -7
1 1 0 -1 -2 -3 -3 -4 -4 -4 -4 -4 -4 -4 -3 -2 -1 -1 -1 -0 1 1 1 1 1 1 1 1 0 -2 -5 -5 -5 -5 -5 -6 -7 -7 -8 -8 -8 -8 -6 -4
1 -0 -0 -1 -1 -2 -2 -2 -2 -2 -3 -3 -3 -3 -3 -2 -1 -1 -1 -0 0 0 0 0 0 0 1 1 0 -1 -3 -4 -4 -4 -4 -4 -5 -6 -7 -7 -6 -5 -3 -1
0 -0 -1 -1 -1 -0 -0 -0 -0 -1 -2 -2 -3 -3 -3 -2 -1 -1 -1 -1 -1 -0 -0 -0 -0 -0 -0 0 1 0 -1 -2 -2 -2 -2 -3 -4 -5 -5 -4 -2 -1 0 1
0 -0 -1 -1 -0 1 1 1 0 0 -0 -0 -1 -2 -3 -2 -1 -1 -1 -0 0 0 0 0 -0 -0 -0 0 1 1 1 1 1 1 0 -1 -3 -3 -2 -1 0 1 1 1
0 0 0 0 1 2 2 2 1 1 1 1 0 -0 -1 -1 -0 -0 0 0 1 1 1 1 1 0 0 1 1 2 3 2 2 2 2 1 -0 -1 -0 1 1 0 -0 -1
1 1 1 1 1 2 2 2 2 2 2 2 2 2 1 1 1 1 1 1 1 2 2 2 2 1 1 1 1 2 2 2 2 2 1 0 -0 -0 0 1 0 -0 -1 -2
1 1 1 1 2 2 2 2 2 2 2 2 2 2 2 2 2 2 3 3 2 2 3 3 3 3 2 2 1 1 1 1 1 0 -0 -1 -1 -1 -0 -0 -0 -1 -1 -1
1 2 2 2 2 2 2 2 2 2 3 3 3 3 3 3 3 3 4 4 3 3 3 4 4 4 3 2 2 1 1 0 -0 -0 -1 -1 -1 -1 -0 -0 -1 -1 -1 -1
2 3 3 3 2 2 2 2 3 3 4 4 4 4 4 4 4 4 4 4 4 4 4 5 5 4 3 3 2 1 1 0 0 -0 -0 -0 -0 -0 -0 -0 -0 -0 -0 -0
3 4 4 4 3 3 3 3 3 4 4 4 5 5 4 5 5 5 5 5 5 5 5 5 5 4 3 3 2 2 2 1 1 1 1 1 0 0 0 1 1 1 0 0
4 5 5 4 4 4 4 3 4 4 4 4 4 4 4 5 5 5 6 6 6 5 5 6 5 5 4 3 3 3 2 2 2 2 2 2 2 2 1 1 1 1 1 1
6 6 5 5 5 5 4 4 5 4 4 4 4 4 4 4 5 5 6 6 6 6 6 6 6 5 5 4 4 3 3 3 3 3 4 4 4 3 3 2 2 2 1 1
7 7 6 6 6 5 5 6 6 5 5 5 5 5 5 5 5 5 6 6 6 6 6 6 6 6 5 5 5 4 4 4 4 4 4 5 5 5 4 4 4 3 3 2
7 7 7 7 7 7 7 7 7 7 6 6 6 6 6 6 6 7 7 7 7 7 7 7 7 7 7 6 6 5 5 4 4 4 4 5 5 5 5 5 5 5 5 5
7 7 7 7 7 7 7 7 7 7 7 7 7 8 8 8 8 8 8 8 8 8 8 8 8 8 8 8 7 7 6 5 5 4 5 5 5 5 5 5 5 6 6 6